Regional Weather Roundup
Issued by NWS Kansas City/Pleasant Hill, MO

Home | Current Version | Previous Version | Graphics & Text | Print | Product List | Glossary Off
Versions: 1 2 3 4 5 6 7 8 9 10 11 12 13 14 15 16 17 18 19 20 21 22 23 24 25 26 27 28 29 30 31 32 33 34 35 36 37 38 39 40 41 42 43 44 45 46 47 48 49 50

000
ASUS43 KEAX 240804
RWREAX

WEATHER ROUNDUP FOR EASTERN KANSAS AND NORTHWEST MISSOURI
NATIONAL WEATHER SERVICE KANSAS CITY/PLEASANT HILL MO
300 AM CDT FRI OCT 24 2014

KSZ040-057-103>105-MOZ028-029-037-043-240900-
...KANSAS CITY METROPOLITAN AREA...

CITY           SKY/WX    TMP DP  RH WIND       PRES   REMARKS
K.C. INTL      MOCLDY    55  55 100 S9        30.07S FOG
K.C. DOWNTOWN  MOCLDY    56  54  93 S6        30.07F FOG
LEES SUMMIT    CLOUDY    57  56  96 SW13      30.09S FOG
OLATHE - IXD   FOG       55  55 100 S8        30.09S VSB 3/4
OLATHE - OJC   FOG       56  56 100 S9        30.08S VSB 1/2
LAWRENCE       PTCLDY    55  54  96 CALM      30.08S FOG

$$

MOZ001>008-011>017-020>025-030>033-038>040-044>046-053-054-240900-
...NORTHERN AND CENTRAL MISSOURI...

CITY           SKY/WX    TMP DP  RH WIND       PRES   REMARKS
ST. JOSEPH     PTCLDY    53  53 100 SE6       30.06S FOG
MOSBY          FOG       54  54 100 CALM      30.08S VSB 1/4
WHITEMAN AFB   CLOUDY    59  56  92 SW8       30.09S
CLINTON        MOCLDY    55  55 100 CALM      30.11S FOG
SEDALIA        MOCLDY    60  57  89 SW6       30.10F
WARSAW         NOT AVBL
MARSHALL       CLEAR     59  57  94 SW5       30.09F FOG
CHILLICOTHE      N/A     56  55  97 S5        30.09R
MOBERLY        FOG       52  48  87 SW3       30.08S VSB 1/4
KIRKSVILLE     FOG       56  56 100 W9        30.07S VSB 1/4

$$

MOZ041-047>049-056>058-063>065-088>090-097-240900-
...EASTERN AND SOUTHERN MISSOURI...

CITY           SKY/WX    TMP DP  RH WIND       PRES   REMARKS
ST. LOUIS INTL PTCLDY    54  46  74 CALM      30.09R
SPIRIT OF STL  PTCLDY    51  47  86 CALM      30.08S
COLUMBIA       FOG       51  50  96 SW6       30.09S VSB 1/4
JEFFERSON CITY FOG       49  48  97 CALM      30.09F VSB 1
MEXICO         CLEAR    N/A N/A N/A SW5       30.08F FOG
ROLLA          MOCLDY    51  48  89 SW8       30.09S
LEBANON        CLOUDY    57  54  88 W6        30.12S
OSAGE BEACH    CLOUDY    59  54  82 SW3       30.10F
SPRINGFIELD    CLEAR     51  50  96 S6        30.11S FOG
BRANSON        PTCLDY    52  50  93 SW3       30.13F
NEVADA         PTCLDY    54  54 100 CALM      30.13R FOG
JOPLIN         CLEAR     51  50  96 S6        30.13R
WEST PLAINS    CLEAR     48  45  89 CALM      30.13S

$$

IAZ060-094-KSZ022-034>040-054-083-096-NEZ052-066-093-240900-
...KANSAS...SOUTHEAST NEBRASKA AND IOWA...

CITY           SKY/WX    TMP DP  RH WIND       PRES   REMARKS
TOPEKA         PTCLDY    59  58  96 S6        30.06F FOG
MANHATTAN      FOG       53  53 100 CALM      30.04F VSB 1/2
EMPORIA        CLOUDY    58  57  97 S10       30.07F FOG
CHANUTE        MOCLDY    55  54  96 SE6       30.10F FOG
WICHITA        PTCLDY    59  56  89 S6        30.07R
LINCOLN        PTCLDY    60  56  86 S9        29.99F
FALLS CITY     CLOUDY    59  58  96 S10       30.03R FOG
LAMONI         FOG       58  57  97 SW10      30.04S VSB 1/4
DES MOINES     FOG       51  49  92 S8        30.03S VSB 1/4

$$




USA.gov is the U.S. government's official web portal to all federal, state and local government web resources and services.